Location: Cactus School
(34.5700°N, 118.0931°W)
Time: 22:37:23
(UTC-07:00)

Vanguard 2 - Pass Details

Date: 02 May 2024
Orbit: 553 x 2914 km, 32.9° (Epoch: 18 May)

Event Time Altitude Azimuth Distance (km) Brightness Sun altitude
Exits shadow 02:54:51 23° 274° (W) 3,706 10.7 -31.6°
Maximum altitude 03:04:55 75° 195° (SSW) 2,679 9.9 -30.4°
Drops below altitude 10° 03:22:42 10° 114° (ESE) 5,730 12.1 -28.0°
Sets 03:27:06 0° 113° (ESE) 6,693 12.6 -27.4°
